Location: Long Island Community Building
(39.9491°N, 99.5338°W)
Time: 16:53:34
(UTC+00:00)

COSMO-SKYMED 1 - Pass Details

Date: 06 December 2019
Orbit: 621 x 623 km, 97.9° (Epoch: 28 January)

Event Time Altitude Azimuth Distance (km) Brightness Sun altitude
Rises 12:34:00 0° 191° (S) 2,887 6.1 -13.3°
Reaches altitude 10° 12:36:24 10° 202° (SSW) 1,986 5.1 -12.9°
Maximum altitude 12:40:12 29° 264° (W) 1,135 3.4 -12.2°
Enters shadow 12:43:46 11° 323° (NW) 1,913 4.6 -11.6°
